^^
Newington CT Miami Avenue Station Historical Data
Daily Summary for April 18, 2018 Units:  English    Metric   Both
Daily Weekly Monthly Yearly Custom
  High: Low: Average:
Temperature: 52.9 °F 32.9 °F 42.1 °F
Dew Point: 35.2 °F 24.1 °F 30.5 °F
Humidity: 88% 49% 64%
Wind Speed: 7.0mph 0.0mph 0.3mph
Wind Gust: 17.3mph - -
Wind- - WSW
Pressure: 29.71 in 29.60 in -
Precipitation: 0.00 in    
Historical Graphs
 
 
Tabular Data for April 18, 2018
Time Temperature Dew Point Pressure Wind Wind Speed Wind Gust Humidity Rainfall Rate (Hourly) solar
00:02 37.4 °F 32.1 °F 29.60 in WSW 0.1 mph 1.2 mph 81% 0.00 in 0.0 W/m2
00:07 37.3 °F 32.3 °F 29.61 in Calm     82% 0.00 in 0.0 W/m2
00:12 37.0 °F 32.3 °F 29.61 in Calm     83% 0.00 in 0.0 W/m2
00:17 36.8 °F 32.4 °F 29.61 in Calm     84% 0.00 in 0.0 W/m2
00:22 36.6 °F 32.2 °F 29.61 in Calm     84% 0.00 in 0.0 W/m2
00:27 36.3 °F 32.2 °F 29.60 in Calm     85% 0.00 in 0.0 W/m2
00:32 36.2 °F 32.4 °F 29.60 in Calm     86% 0.00 in 0.0 W/m2
00:37 36.0 °F 32.2 °F 29.60 in Calm     86% 0.00 in 0.0 W/m2
00:42 35.7 °F 31.9 °F 29.61 in Calm     86% 0.00 in 0.0 W/m2
00:47 35.5 °F 32.0 °F 29.61 in Calm     87% 0.00 in 0.0 W/m2
00:52 35.4 °F 31.9 °F 29.61 in Calm     87% 0.00 in 0.0 W/m2
00:57 35.3 °F 31.8 °F 29.61 in Calm     87% 0.00 in 0.0 W/m2
01:02 35.2 °F 31.7 °F 29.61 in Calm     87% 0.00 in 0.0 W/m2
01:07 35.1 °F 31.9 °F 29.61 in Calm     88% 0.00 in 0.0 W/m2
01:12 35.1 °F 31.6 °F 29.61 in Calm     87% 0.00 in 0.0 W/m2
01:17 34.9 °F 31.4 °F 29.61 in Calm     87% 0.00 in 0.0 W/m2
01:22 34.8 °F 31.3 °F 29.61 in Calm     87% 0.00 in 0.0 W/m2
01:27 34.7 °F 31.2 °F 29.61 in Calm     87% 0.00 in 0.0 W/m2
01:33 34.6 °F 31.1 °F 29.60 in Calm     87% 0.00 in 0.0 W/m2
01:38 34.4 °F 31.2 °F 29.60 in Calm     88% 0.00 in 0.0 W/m2
01:43 34.3 °F 30.8 °F 29.60 in Calm     87% 0.00 in 0.0 W/m2
01:48 34.2 °F 30.7 °F 29.60 in Calm     87% 0.00 in 0.0 W/m2
01:53 34.0 °F 30.8 °F 29.60 in Calm     88% 0.00 in 0.0 W/m2
01:58 33.9 °F 30.7 °F 29.60 in Calm     88% 0.00 in 0.0 W/m2
02:03 33.8 °F 30.6 °F 29.60 in Calm     88% 0.00 in 0.0 W/m2
02:08 33.7 °F 30.5 °F 29.60 in Calm     88% 0.00 in 0.0 W/m2
02:13 33.7 °F 30.5 °F 29.60 in Calm     88% 0.00 in 0.0 W/m2
02:18 33.5 °F 30.3 °F 29.60 in Calm     88% 0.00 in 0.0 W/m2
02:23 33.4 °F 30.2 °F 29.60 in Calm     88% 0.00 in 0.0 W/m2
02:28 33.4 °F 30.2 °F 29.60 in Calm     88% 0.00 in 0.0 W/m2
02:33 33.3 °F 30.1 °F 29.60 in Calm     88% 0.00 in 0.0 W/m2
02:38 33.1 °F 29.9 °F 29.61 in Calm     88% 0.00 in 0.0 W/m2
02:43 33.0 °F 29.8 °F 29.61 in Calm     88% 0.00 in 0.0 W/m2
02:48 33.0 °F 29.8 °F 29.61 in Calm     88% 0.00 in 0.0 W/m2
02:53 32.9 °F 29.7 °F 29.61 in Calm     88% 0.00 in 0.0 W/m2
02:58 32.9 °F 29.7 °F 29.61 in Calm     88% 0.00 in 0.0 W/m2
03:03 32.9 °F 29.7 °F 29.61 in Calm     88% 0.00 in 0.0 W/m2
03:08 33.0 °F 29.8 °F 29.61 in Calm     88% 0.00 in 0.0 W/m2
03:13 33.1 °F 29.9 °F 29.61 in Calm     88% 0.00 in 0.0 W/m2
03:18 33.2 °F 30.0 °F 29.62 in Calm     88% 0.00 in 0.0 W/m2
03:24 33.4 °F 29.9 °F 29.62 in Calm     87% 0.00 in 0.0 W/m2
03:29 33.4 °F 29.9 °F 29.62 in Calm     87% 0.00 in 0.0 W/m2
03:34 33.5 °F 30.0 °F 29.62 in Calm     87% 0.00 in 0.0 W/m2
03:39 33.6 °F 29.9 °F 29.62 in WSW 0.1 mph 1.2 mph 86% 0.00 in 0.0 W/m2
03:44 33.8 °F 30.1 °F 29.62 in Calm   2.3 mph 86% 0.00 in 0.0 W/m2
03:49 33.9 °F 29.9 °F 29.62 in Calm     85% 0.00 in 0.0 W/m2
03:54 34.0 °F 30.0 °F 29.62 in Calm   1.0 mph 85% 0.00 in 0.0 W/m2
03:59 34.3 °F 30.0 °F 29.62 in West 0.6 mph 3.5 mph 84% 0.00 in 0.0 W/m2
04:04 34.4 °F 29.8 °F 29.63 in Calm     83% 0.00 in 0.0 W/m2
04:09 34.6 °F 29.7 °F 29.63 in WSW 0.3 mph 3.5 mph 82% 0.00 in 0.0 W/m2
04:14 34.6 °F 29.4 °F 29.63 in Calm     81% 0.00 in 0.0 W/m2
04:19 34.7 °F 29.2 °F 29.63 in Calm     80% 0.00 in 0.0 W/m2
04:24 34.7 °F 28.9 °F 29.63 in Calm     79% 0.00 in 0.0 W/m2
04:29 34.8 °F 28.6 °F 29.63 in Calm     78% 0.00 in 0.0 W/m2
04:34 34.7 °F 28.2 °F 29.63 in Calm   1.2 mph 77% 0.00 in 0.0 W/m2
04:39 34.6 °F 27.5 °F 29.63 in Calm     75% 0.00 in 0.0 W/m2
04:44 34.6 °F 27.2 °F 29.63 in Calm     74% 0.00 in 0.0 W/m2
04:49 34.5 °F 26.7 °F 29.63 in Calm     73% 0.00 in 0.0 W/m2
04:54 34.4 °F 26.3 °F 29.63 in Calm     72% 0.00 in 0.0 W/m2
04:59 34.3 °F 25.9 °F 29.63 in Calm     71% 0.00 in 0.0 W/m2
05:04 34.2 °F 25.4 °F 29.63 in Calm     70% 0.00 in 0.0 W/m2
05:09 34.1 °F 25.0 °F 29.62 in Calm   1.2 mph 69% 0.00 in 0.0 W/m2
05:14 34.1 °F 24.6 °F 29.62 in Calm     68% 0.00 in 0.0 W/m2
05:20 34.0 °F 24.5 °F 29.63 in Calm     68% 0.00 in 0.0 W/m2
05:25 34.0 °F 24.5 °F 29.62 in Calm     68% 0.00 in 0.0 W/m2
05:30 34.0 °F 24.2 °F 29.63 in Calm     67% 0.00 in 0.0 W/m2
05:35 33.9 °F 24.1 °F 29.62 in Calm     67% 0.00 in 0.0 W/m2
05:40 34.0 °F 24.5 °F 29.62 in Calm     68% 0.00 in 0.0 W/m2
05:45 33.9 °F 24.4 °F 29.62 in Calm     68% 0.00 in 0.0 W/m2
05:50 33.9 °F 24.8 °F 29.62 in Calm     69% 0.00 in 0.0 W/m2
05:55 33.9 °F 24.8 °F 29.62 in Calm     69% 0.00 in 0.0 W/m2
06:00 33.9 °F 24.8 °F 29.63 in Calm     69% 0.00 in 0.0 W/m2
06:05 34.0 °F 24.9 °F 29.63 in Calm     69% 0.00 in 0.0 W/m2
06:10 34.2 °F 24.7 °F 29.63 in Calm     68% 0.00 in 5.0 W/m2
06:15 34.3 °F 25.2 °F 29.63 in Calm     69% 0.00 in 7.0 W/m2
06:20 34.3 °F 25.5 °F 29.63 in Calm     70% 0.00 in 9.0 W/m2
06:25 34.4 °F 26.0 °F 29.63 in Calm     71% 0.00 in 12.0 W/m2
06:30 34.5 °F 26.4 °F 29.63 in Calm     72% 0.00 in 16.0 W/m2
06:35 34.5 °F 26.1 °F 29.63 in Calm     71% 0.00 in 18.0 W/m2
06:40 34.5 °F 26.1 °F 29.63 in Calm     71% 0.00 in 21.0 W/m2
06:45 34.5 °F 25.7 °F 29.64 in Calm     70% 0.00 in 19.0 W/m2
06:50 34.5 °F 25.7 °F 29.64 in Calm     70% 0.00 in 16.0 W/m2
06:55 34.6 °F 25.5 °F 29.64 in Calm     69% 0.00 in 14.0 W/m2
07:00 34.6 °F 25.1 °F 29.64 in Calm   1.2 mph 68% 0.00 in 14.0 W/m2
07:05 34.6 °F 25.5 °F 29.64 in SW 1.7 mph   69% 0.00 in 18.0 W/m2
07:10 34.7 °F 25.2 °F 29.64 in SW 0.1 mph 3.0 mph 68% 0.00 in 33.0 W/m2
07:16 34.8 °F 25.3 °F 29.64 in Calm     68% 0.00 in 54.0 W/m2
07:21 34.8 °F 25.3 °F 29.64 in Calm     68% 0.00 in 37.0 W/m2
07:26 34.8 °F 25.3 °F 29.65 in Calm     68% 0.00 in 37.0 W/m2
07:31 35.0 °F 25.5 °F 29.65 in Calm   1.2 mph 68% 0.00 in 39.0 W/m2
07:36 35.2 °F 25.3 °F 29.65 in SW 0.1 mph 1.2 mph 67% 0.00 in 58.0 W/m2
07:41 35.3 °F 25.4 °F 29.65 in Calm     67% 0.00 in 67.0 W/m2
07:46 35.6 °F 25.7 °F 29.65 in Calm     67% 0.00 in 81.0 W/m2
07:51 36.0 °F 26.1 °F 29.65 in WSW 1.4 mph 6.9 mph 67% 0.00 in 127.0 W/m2
07:56 36.2 °F 26.3 °F 29.65 in Calm     67% 0.00 in 90.0 W/m2
08:01 36.5 °F 26.6 °F 29.65 in Calm     67% 0.00 in 116.0 W/m2
08:06 36.9 °F 26.6 °F 29.65 in West 0.3 mph 2.3 mph 66% 0.00 in 237.0 W/m2
08:11 37.3 °F 27.3 °F 29.64 in Calm     67% 0.00 in 288.0 W/m2
08:16 37.7 °F 27.4 °F 29.65 in West 0.8 mph 8.1 mph 66% 0.00 in 176.0 W/m2
08:21 37.8 °F 27.1 °F 29.65 in WSW 1.2 mph 8.1 mph 65% 0.00 in 155.0 W/m2
08:26 37.4 °F 26.7 °F 29.65 in SW 0.4 mph 4.6 mph 65% 0.00 in 174.0 W/m2
08:31 37.6 °F 27.3 °F 29.65 in SW 1.2 mph 8.1 mph 66% 0.00 in 141.0 W/m2
08:36 37.7 °F 27.4 °F 29.65 in SW 1.4 mph 3.5 mph 66% 0.00 in 127.0 W/m2
08:41 37.8 °F 27.5 °F 29.65 in South 0.6 mph 3.0 mph 66% 0.00 in 123.0 W/m2
08:46 37.9 °F 27.5 °F 29.65 in Calm   1.2 mph 66% 0.00 in 142.0 W/m2
08:51 38.0 °F 27.6 °F 29.65 in West 0.2 mph 3.5 mph 66% 0.00 in 146.0 W/m2
08:56 38.2 °F 27.8 °F 29.66 in Calm     66% 0.00 in 149.0 W/m2
09:01 38.4 °F 28.0 °F 29.66 in Calm     66% 0.00 in 172.0 W/m2
09:07 38.6 °F 28.2 °F 29.66 in SSW 0.1 mph 1.2 mph 66% 0.00 in 176.0 W/m2
09:12 38.5 °F 28.1 °F 29.66 in Calm   3.5 mph 66% 0.00 in 195.0 W/m2
09:17 38.7 °F 28.3 °F 29.66 in SW 1.1 mph 5.8 mph 66% 0.00 in 213.0 W/m2
09:22 38.8 °F 28.4 °F 29.66 in Calm   3.5 mph 66% 0.00 in 190.0 W/m2
09:27 39.1 °F 28.7 °F 29.66 in Calm     66% 0.00 in 178.0 W/m2
09:32 39.4 °F 29.0 °F 29.66 in Calm     66% 0.00 in 178.0 W/m2
09:37 39.7 °F 28.9 °F 29.66 in Calm     65% 0.00 in 211.0 W/m2
09:42 40.1 °F 29.3 °F 29.66 in NW 0.2 mph 1.2 mph 65% 0.00 in 269.0 W/m2
09:47 40.2 °F 29.4 °F 29.66 in Calm     65% 0.00 in 264.0 W/m2
09:52 40.1 °F 28.9 °F 29.66 in South 0.4 mph 3.5 mph 64% 0.00 in 272.0 W/m2
09:57 40.3 °F 29.1 °F 29.66 in Calm   1.2 mph 64% 0.00 in 274.0 W/m2
10:02 40.8 °F 29.6 °F 29.66 in WSW 1.3 mph 9.2 mph 64% 0.00 in 329.0 W/m2
10:07 40.9 °F 29.7 °F 29.66 in Calm     64% 0.00 in 339.0 W/m2
10:12 41.5 °F 30.2 °F 29.66 in WSW 0.2 mph 1.2 mph 64% 0.00 in 318.0 W/m2
10:17 41.5 °F 29.8 °F 29.65 in SSW 0.2 mph 5.8 mph 63% 0.00 in 381.0 W/m2
10:22 42.0 °F 30.3 °F 29.66 in Calm     63% 0.00 in 696.0 W/m2
10:27 42.7 °F 30.6 °F 29.65 in Calm     62% 0.00 in 323.0 W/m2
10:32 42.8 °F 30.7 °F 29.65 in Calm   1.2 mph 62% 0.00 in 248.0 W/m2
10:37 42.9 °F 30.4 °F 29.65 in WNW 1.7 mph 11.5 mph 61% 0.00 in 308.0 W/m2
10:42 43.0 °F 30.5 °F 29.66 in SW 1.1 mph 4.6 mph 61% 0.00 in 285.0 W/m2
10:47 43.2 °F 30.6 °F 29.66 in WSW 1.3 mph 10.0 mph 61% 0.00 in 283.0 W/m2
10:52 43.0 °F 30.5 °F 29.65 in SW 3.5 mph 10.4 mph 61% 0.00 in 313.0 W/m2
10:57 43.2 °F 31.1 °F 29.65 in West 1.8 mph 5.0 mph 62% 0.00 in 353.0 W/m2
11:02 43.5 °F 30.9 °F 29.65 in West 0.2 mph   61% 0.00 in 348.0 W/m2
11:08 43.7 °F 30.7 °F 29.65 in WSW 0.8 mph 1.2 mph 60% 0.00 in 239.0 W/m2
11:13 43.8 °F 31.2 °F 29.65 in Calm   4.6 mph 61% 0.00 in 316.0 W/m2
11:18 44.2 °F 31.6 °F 29.65 in SSW 1.7 mph 9.2 mph 61% 0.00 in 309.0 W/m2
11:23 44.4 °F 31.8 °F 29.65 in WNW 0.8 mph 8.1 mph 61% 0.00 in 353.0 W/m2
11:28 44.5 °F 31.5 °F 29.65 in WSW 0.1 mph 1.2 mph 60% 0.00 in 336.0 W/m2
11:33 44.7 °F 31.7 °F 29.66 in West 4.8 mph 13.8 mph 60% 0.00 in 336.0 W/m2
11:38 44.7 °F 31.2 °F 29.66 in West 2.7 mph 9.2 mph 59% 0.00 in 345.0 W/m2
11:43 44.8 °F 31.8 °F 29.65 in Calm     60% 0.00 in 367.0 W/m2
11:48 45.4 °F 32.3 °F 29.66 in Calm   3.5 mph 60% 0.00 in 434.0 W/m2
11:53 45.5 °F 31.6 °F 29.66 in West 0.9 mph 4.6 mph 58% 0.00 in 360.0 W/m2
11:58 45.5 °F 31.6 °F 29.65 in West 0.2 mph 3.5 mph 58% 0.00 in 360.0 W/m2
12:03 45.9 °F 31.9 °F 29.65 in SSW 0.4 mph 11.5 mph 58% 0.00 in 1018.0 W/m2
12:08 46.5 °F 32.9 °F 29.65 in SSW 0.3 mph 3.5 mph 59% 0.00 in 984.0 W/m2
12:13 46.7 °F 32.3 °F 29.65 in SW 0.7 mph 6.9 mph 57% 0.00 in 424.0 W/m2
12:18 46.5 °F 32.9 °F 29.65 in WSW 0.1 mph 1.0 mph 59% 0.00 in 485.0 W/m2
12:23 46.7 °F 32.3 °F 29.66 in West 3.5 mph 13.8 mph 57% 0.00 in 320.0 W/m2
12:28 46.4 °F 32.0 °F 29.66 in WNW 0.1 mph 1.2 mph 57% 0.00 in 350.0 W/m2
12:33 46.5 °F 32.1 °F 29.66 in WSW 0.8 mph 6.9 mph 57% 0.00 in 292.0 W/m2
12:38 46.7 °F 32.3 °F 29.66 in WSW 2.2 mph 11.5 mph 57% 0.00 in 278.0 W/m2
12:43 46.7 °F 32.3 °F 29.67 in SSW 0.2 mph 13.8 mph 57% 0.00 in 325.0 W/m2
12:48 46.7 °F 32.3 °F 29.66 in SW 1.5 mph 6.9 mph 57% 0.00 in 274.0 W/m2
12:53 46.5 °F 32.1 °F 29.66 in West 0.6 mph 3.5 mph 57% 0.00 in 322.0 W/m2
12:58 46.9 °F 32.9 °F 29.66 in SW 0.2 mph 2.3 mph 58% 0.00 in 288.0 W/m2
13:04 46.7 °F 32.3 °F 29.65 in Calm   1.2 mph 57% 0.00 in 318.0 W/m2
13:09 46.8 °F 32.8 °F 29.65 in SW 0.5 mph 3.5 mph 58% 0.00 in 239.0 W/m2
13:14 46.5 °F 32.1 °F 29.66 in WSW 3.2 mph 17.3 mph 57% 0.00 in 227.0 W/m2
13:19 46.6 °F 32.6 °F 29.66 in West 3.7 mph 11.5 mph 58% 0.00 in 287.0 W/m2
13:24 46.9 °F 33.3 °F 29.66 in Calm   4.0 mph 59% 0.00 in 439.0 W/m2
13:29 47.2 °F 32.7 °F 29.66 in Calm     57% 0.00 in 438.0 W/m2
13:34 47.6 °F 33.5 °F 29.66 in Calm     58% 0.00 in 413.0 W/m2
13:39 48.0 °F 33.5 °F 29.67 in Calm     57% 0.00 in 265.0 W/m2
13:44 48.3 °F 34.2 °F 29.66 in Calm     58% 0.00 in 253.0 W/m2
13:49 48.5 °F 33.5 °F 29.66 in Calm     56% 0.00 in 258.0 W/m2
13:54 48.6 °F 34.0 °F 29.67 in WSW 0.1 mph 1.2 mph 57% 0.00 in 309.0 W/m2
13:59 48.7 °F 32.8 °F 29.66 in Calm     54% 0.00 in 302.0 W/m2
14:04 48.8 °F 33.3 °F 29.66 in NNW 0.3 mph 2.3 mph 55% 0.00 in 367.0 W/m2
14:09 49.4 °F 33.9 °F 29.66 in NW 2.6 mph 5.8 mph 55% 0.00 in 397.0 W/m2
14:14 49.3 °F 32.9 °F 29.66 in SSW 3.0 mph 6.0 mph 53% 0.00 in 485.0 W/m2
14:19 49.8 °F 35.2 °F 29.66 in SSE 0.2 mph 4.0 mph 57% 0.00 in 1125.0 W/m2
14:24 51.4 °F 33.9 °F 29.66 in WNW 0.1 mph 15.0 mph 51% 0.00 in 940.0 W/m2
14:29 51.3 °F 33.3 °F 29.65 in Calm     50% 0.00 in 944.0 W/m2
14:34 51.5 °F 33.5 °F 29.65 in North 1.6 mph 11.5 mph 50% 0.00 in 895.0 W/m2
14:39 51.4 °F 33.9 °F 29.66 in North 0.3 mph 6.9 mph 51% 0.00 in 896.0 W/m2
14:44 51.4 °F 33.9 °F 29.66 in West 0.1 mph 3.5 mph 51% 0.00 in 891.0 W/m2
14:49 51.2 °F 33.2 °F 29.65 in WSW 1.5 mph 10.4 mph 50% 0.00 in 909.0 W/m2
14:54 51.2 °F 33.7 °F 29.66 in SW 1.9 mph 13.0 mph 51% 0.00 in 918.0 W/m2
14:59 51.0 °F 33.5 °F 29.66 in NNW 0.9 mph 10.4 mph 51% 0.00 in 1085.0 W/m2
15:05 51.6 °F 34.0 °F 29.66 in West 0.3 mph 11.5 mph 51% 0.00 in 1132.0 W/m2
15:10 52.4 °F 34.3 °F 29.66 in West 0.2 mph 2.3 mph 50% 0.00 in 1121.0 W/m2
15:15 52.9 °F 34.2 °F 29.66 in WSW 0.3 mph 3.5 mph 49% 0.00 in 1062.0 W/m2
15:20 52.1 °F 34.0 °F 29.66 in Calm   5.8 mph 50% 0.00 in 1021.0 W/m2
15:25 52.2 °F 33.6 °F 29.66 in WSW 7.0 mph 13.8 mph 49% 0.00 in 958.0 W/m2
15:30 51.8 °F 33.7 °F 29.66 in WSW 1.2 mph 10.4 mph 50% 0.00 in 896.0 W/m2
15:35 51.5 °F 33.5 °F 29.65 in SW 0.6 mph 4.6 mph 50% 0.00 in 262.0 W/m2
15:40 51.3 °F 33.8 °F 29.66 in SW 0.2 mph 2.3 mph 51% 0.00 in 330.0 W/m2
15:45 50.8 °F 32.8 °F 29.66 in WSW 0.4 mph 3.5 mph 50% 0.00 in 239.0 W/m2
15:50 51.0 °F 34.0 °F 29.66 in SSW 0.1 mph   52% 0.00 in 209.0 W/m2
15:55 50.4 °F 32.4 °F 29.66 in WNW 1.2 mph 10.4 mph 50% 0.00 in 209.0 W/m2
16:00 50.3 °F 32.8 °F 29.66 in Calm     51% 0.00 in 156.0 W/m2
16:05 50.1 °F 33.1 °F 29.66 in Calm     52% 0.00 in 130.0 W/m2
16:10 49.7 °F 32.8 °F 29.66 in Calm     52% 0.00 in 135.0 W/m2
16:15 49.7 °F 32.8 °F 29.65 in Calm     52% 0.00 in 171.0 W/m2
16:20 49.7 °F 33.2 °F 29.65 in SSW 0.1 mph 2.0 mph 53% 0.00 in 158.0 W/m2
16:25 49.7 °F 32.8 °F 29.66 in WSW 1.6 mph 1.6 mph 52% 0.00 in 148.0 W/m2
16:30 49.6 °F 32.2 °F 29.66 in Calm   2.3 mph 51% 0.00 in 190.0 W/m2
16:35 49.4 °F 32.0 °F 29.65 in Calm     51% 0.00 in 211.0 W/m2
16:40 49.6 °F 32.7 °F 29.65 in Calm     52% 0.00 in 197.0 W/m2
16:46 49.8 °F 32.9 °F 29.66 in Calm     52% 0.00 in 179.0 W/m2
16:51 49.8 °F 31.9 °F 29.65 in Calm   3.5 mph 50% 0.00 in 148.0 W/m2
16:56 49.7 °F 31.8 °F 29.66 in Calm   1.2 mph 50% 0.00 in 120.0 W/m2
17:01 49.6 °F 32.2 °F 29.66 in SSW 0.3 mph 3.5 mph 51% 0.00 in 123.0 W/m2
17:06 49.6 °F 32.2 °F 29.66 in Calm     51% 0.00 in 107.0 W/m2
17:11 49.6 °F 31.7 °F 29.66 in Calm     50% 0.00 in 104.0 W/m2
17:16 49.6 °F 31.7 °F 29.66 in SSW 0.9 mph 5.0 mph 50% 0.00 in 98.0 W/m2
17:21 49.6 °F 32.2 °F 29.66 in Calm     51% 0.00 in 97.0 W/m2
17:26 49.7 °F 32.3 °F 29.66 in Calm     51% 0.00 in 95.0 W/m2
17:31 50.0 °F 32.6 °F 29.66 in Calm   1.2 mph 51% 0.00 in 95.0 W/m2
17:36 49.9 °F 32.0 °F 29.66 in SSE 0.7 mph 6.9 mph 50% 0.00 in 81.0 W/m2
17:41 49.8 °F 31.9 °F 29.67 in SSW 0.3 mph 2.0 mph 50% 0.00 in 90.0 W/m2
17:46 49.7 °F 31.8 °F 29.67 in WSW 0.9 mph 3.5 mph 50% 0.00 in 76.0 W/m2
17:51 49.5 °F 31.6 °F 29.67 in Calm   6.9 mph 50% 0.00 in 58.0 W/m2
17:56 49.3 °F 31.9 °F 29.67 in Calm     51% 0.00 in 47.0 W/m2
18:01 49.3 °F 31.9 °F 29.67 in SW 0.1 mph   51% 0.00 in 44.0 W/m2
18:06 49.3 °F 31.9 °F 29.67 in Calm     51% 0.00 in 40.0 W/m2
18:11 49.4 °F 32.5 °F 29.67 in Calm     52% 0.00 in 37.0 W/m2
18:16 49.3 °F 31.9 °F 29.67 in Calm     51% 0.00 in 33.0 W/m2
18:21 49.2 °F 31.8 °F 29.67 in Calm   1.2 mph 51% 0.00 in 35.0 W/m2
18:26 49.2 °F 31.8 °F 29.68 in Calm     51% 0.00 in 37.0 W/m2
18:31 49.2 °F 31.3 °F 29.68 in Calm     50% 0.00 in 32.0 W/m2
18:36 49.2 °F 31.8 °F 29.67 in WSW 0.3 mph 2.3 mph 51% 0.00 in 26.0 W/m2
18:42 49.2 °F 31.3 °F 29.67 in Calm   3.5 mph 50% 0.00 in 26.0 W/m2
18:47 49.1 °F 31.2 °F 29.67 in SW 0.2 mph 2.3 mph 50% 0.00 in 25.0 W/m2
18:52 49.1 °F 31.2 °F 29.67 in Calm     50% 0.00 in 21.0 W/m2
18:57 49.0 °F 31.2 °F 29.67 in SW 1.6 mph 6.9 mph 50% 0.00 in 18.0 W/m2
19:02 49.0 °F 31.2 °F 29.67 in Calm     50% 0.00 in 16.0 W/m2
19:07 48.8 °F 31.0 °F 29.67 in WSW 0.3 mph 3.5 mph 50% 0.00 in 14.0 W/m2
19:12 48.8 °F 31.5 °F 29.67 in SW 0.2 mph 2.3 mph 51% 0.00 in 9.0 W/m2
19:17 48.7 °F 31.4 °F 29.68 in WSW 0.8 mph 4.6 mph 51% 0.00 in 7.0 W/m2
19:22 48.6 °F 31.3 °F 29.68 in WNW 0.8 mph 4.6 mph 51% 0.00 in 5.0 W/m2
19:27 48.5 °F 31.2 °F 29.68 in Calm     51% 0.00 in 0.0 W/m2
19:32 48.5 °F 31.7 °F 29.68 in SSW 0.4 mph 3.5 mph 52% 0.00 in 0.0 W/m2
19:37 48.5 °F 31.2 °F 29.68 in Calm     51% 0.00 in 0.0 W/m2
19:42 48.4 °F 31.1 °F 29.68 in SW 0.9 mph 9.2 mph 51% 0.00 in 0.0 W/m2
19:47 48.3 °F 31.5 °F 29.68 in Calm     52% 0.00 in 0.0 W/m2
19:52 48.2 °F 31.4 °F 29.68 in Calm     52% 0.00 in 0.0 W/m2
19:57 48.2 °F 31.4 °F 29.68 in Calm     52% 0.00 in 0.0 W/m2
20:02 48.1 °F 31.8 °F 29.68 in Calm     53% 0.00 in 0.0 W/m2
20:07 48.1 °F 31.8 °F 29.68 in Calm     53% 0.00 in 0.0 W/m2
20:12 48.1 °F 31.8 °F 29.68 in Calm     53% 0.00 in 0.0 W/m2
20:17 48.0 °F 31.7 °F 29.69 in Calm     53% 0.00 in 0.0 W/m2
20:22 47.9 °F 31.6 °F 29.69 in Calm     53% 0.00 in 0.0 W/m2
20:28 47.8 °F 31.9 °F 29.69 in Calm     54% 0.00 in 0.0 W/m2
20:33 47.7 °F 32.3 °F 29.70 in Calm     55% 0.00 in 0.0 W/m2
20:38 47.6 °F 32.2 °F 29.70 in Calm     55% 0.00 in 0.0 W/m2
20:43 47.5 °F 32.6 °F 29.70 in Calm     56% 0.00 in 0.0 W/m2
20:48 47.4 °F 32.5 °F 29.70 in Calm     56% 0.00 in 0.0 W/m2
20:53 47.2 °F 32.3 °F 29.70 in Calm     56% 0.00 in 0.0 W/m2
20:58 47.1 °F 32.2 °F 29.70 in Calm     56% 0.00 in 0.0 W/m2
21:03 47.0 °F 32.1 °F 29.70 in Calm     56% 0.00 in 0.0 W/m2
21:08 47.0 °F 32.5 °F 29.70 in Calm     57% 0.00 in 0.0 W/m2
21:13 46.8 °F 31.9 °F 29.70 in Calm     56% 0.00 in 0.0 W/m2
21:18 46.7 °F 31.8 °F 29.70 in Calm     56% 0.00 in 0.0 W/m2
21:23 46.6 °F 32.2 °F 29.70 in Calm     57% 0.00 in 0.0 W/m2
21:28 46.4 °F 32.0 °F 29.70 in Calm     57% 0.00 in 0.0 W/m2
21:33 46.3 °F 32.3 °F 29.70 in Calm     58% 0.00 in 0.0 W/m2
21:38 46.1 °F 32.1 °F 29.70 in Calm     58% 0.00 in 0.0 W/m2
21:43 45.9 °F 32.4 °F 29.70 in Calm     59% 0.00 in 0.0 W/m2
21:48 45.8 °F 31.9 °F 29.70 in Calm     58% 0.00 in 0.0 W/m2
21:53 45.5 °F 32.0 °F 29.70 in Calm     59% 0.00 in 0.0 W/m2
21:58 45.1 °F 31.6 °F 29.71 in Calm     59% 0.00 in 0.0 W/m2
22:03 44.9 °F 31.8 °F 29.70 in Calm     60% 0.00 in 0.0 W/m2
22:08 44.7 °F 31.7 °F 29.70 in Calm     60% 0.00 in 0.0 W/m2
22:14 44.6 °F 31.6 °F 29.70 in Calm     60% 0.00 in 0.0 W/m2
22:19 44.4 °F 31.8 °F 29.70 in Calm     61% 0.00 in 0.0 W/m2
22:24 44.1 °F 31.9 °F 29.70 in Calm     62% 0.00 in 0.0 W/m2
22:29 43.8 °F 31.6 °F 29.70 in Calm     62% 0.00 in 0.0 W/m2
22:34 43.6 °F 31.4 °F 29.70 in Calm     62% 0.00 in 0.0 W/m2
22:39 43.4 °F 31.6 °F 29.70 in Calm     63% 0.00 in 0.0 W/m2
22:44 43.1 °F 31.4 °F 29.70 in Calm     63% 0.00 in 0.0 W/m2
22:49 42.8 °F 31.5 °F 29.70 in Calm     64% 0.00 in 0.0 W/m2
22:54 42.6 °F 31.3 °F 29.70 in Calm     64% 0.00 in 0.0 W/m2
22:59 42.4 °F 31.5 °F 29.70 in Calm     65% 0.00 in 0.0 W/m2
23:04 42.2 °F 31.3 °F 29.70 in Calm     65% 0.00 in 0.0 W/m2
23:09 41.8 °F 30.9 °F 29.70 in Calm     65% 0.00 in 0.0 W/m2
23:14 41.5 °F 31.0 °F 29.69 in Calm     66% 0.00 in 0.0 W/m2
23:19 41.0 °F 30.9 °F 29.69 in Calm     67% 0.00 in 0.0 W/m2
23:24 40.8 °F 30.7 °F 29.69 in Calm     67% 0.00 in 0.0 W/m2
23:29 40.6 °F 30.5 °F 29.69 in Calm     67% 0.00 in 0.0 W/m2
23:34 40.5 °F 30.8 °F 29.68 in Calm     68% 0.00 in 0.0 W/m2
23:39 40.1 °F 30.7 °F 29.69 in Calm     69% 0.00 in 0.0 W/m2
23:44 39.9 °F 30.9 °F 29.69 in Calm     70% 0.00 in 0.0 W/m2
23:49 39.8 °F 30.8 °F 29.69 in Calm     70% 0.00 in 0.0 W/m2
23:54 39.6 °F 30.6 °F 29.70 in Calm     70% 0.00 in 0.0 W/m2
Miami Avenue Weather - Newington CT
Compliments of Weather Underground - 3 mb